QPF
0.00 0.00 0.00 0.00 0.00 0.00 0.00 0.00 0.01 0.01 0.00 0.00 0.00 0.01 0.03 0.03 0.05 0.07 0.05 0.04 0.03 0.05 0.14 0.14 0.04 0.04 0.04 0.04 0.04 0.05 0.05 0.05 0.04 0.05 0.07 0.09 0.10 0.12 0.15 0.20 0.25 0.24 0.21 0.19
0.00 0.00 0.00 0.00 0.00 0.00 0.00 0.00 0.00 0.01 0.01 0.00 0.00 0.02 0.02 0.01 0.02 0.02 0.02 0.02 0.03 0.05 0.09 0.13 0.05 0.05 0.04 0.04 0.04 0.05 0.06 0.05 0.05 0.06 0.06 0.07 0.08 0.08 0.09 0.12 0.16 0.16 0.16 0.15
0.00 0.00 0.00 0.00 0.00 0.00 0.00 0.00 0.00 0.00 0.00 0.00 0.00 0.01 0.03 0.02 0.01 0.02 0.02 0.01 0.01 0.05 0.10 0.09 0.04 0.02 0.03 0.03 0.04 0.05 0.06 0.05 0.05 0.06 0.06 0.05 0.06 0.06 0.07 0.10 0.15 0.14 0.15 0.16
0.00 0.00 0.00 0.00 0.00 0.00 0.00 0.00 0.00 0.01 0.01 0.01 0.00 0.01 0.03 0.02 0.02 0.02 0.02 0.02 0.02 0.06 0.08 0.06 0.03 0.02 0.03 0.04 0.04 0.05 0.05 0.05 0.05 0.05 0.06 0.06 0.07 0.08 0.07 0.07 0.11 0.12 0.13 0.12
0.00 0.00 0.00 0.00 0.00 0.00 0.00 0.00 0.00 0.01 0.01 0.01 0.01 0.01 0.03 0.05 0.04 0.04 0.04 0.04 0.04 0.07 0.06 0.04 0.03 0.03 0.04 0.05 0.06 0.07 0.07 0.07 0.07 0.07 0.08 0.08 0.07 0.10 0.09 0.08 0.08 0.07 0.06 0.06
0.00 0.00 0.00 0.00 0.00 0.00 0.00 0.00 0.00 0.00 0.00 0.01 0.02 0.02 0.05 0.07 0.09 0.07 0.08 0.07 0.06 0.06 0.04 0.03 0.03 0.03 0.03 0.04 0.06 0.07 0.08 0.09 0.09 0.08 0.07 0.07 0.07 0.09 0.10 0.10 0.09 0.07 0.05 0.04
0.00 0.00 0.00 0.00 0.00 0.00 0.00 0.00 0.01 0.03 0.03 0.02 0.01 0.02 0.05 0.08 0.09 0.10 0.13 0.15 0.07 0.05 0.04 0.03 0.03 0.03 0.04 0.04 0.04 0.05 0.06 0.06 0.06 0.05 0.05 0.05 0.06 0.07 0.08 0.09 0.07 0.06 0.04 0.03
0.02 0.01 0.00 0.00 0.00 0.00 0.00 0.00 0.04 0.07 0.06 0.05 0.03 0.03 0.05 0.03 0.04 0.10 0.10 0.10 0.07 0.06 0.05 0.03 0.03 0.03 0.03 0.03 0.04 0.04 0.04 0.04 0.03 0.02 0.02 0.03 0.03 0.04 0.04 0.05 0.05 0.04 0.04 0.04
0.03 0.02 0.01 0.00 0.00 0.00 0.00 0.01 0.05 0.04 0.05 0.06 0.07 0.06 0.06 0.05 0.05 0.05 0.06 0.05 0.04 0.04 0.03 0.03 0.04 0.03 0.03 0.03 0.03 0.03 0.03 0.03 0.02 0.01 0.02 0.02 0.02 0.02 0.03 0.02 0.02 0.02 0.03 0.03
0.02 0.03 0.01 0.00 0.00 0.00 0.01 0.01 0.02 0.02 0.07 0.08 0.07 0.12 0.14 0.11 0.09 0.05 0.03 0.03 0.03 0.05 0.05 0.04 0.04 0.04 0.04 0.04 0.03 0.02 0.02 0.02 0.01 0.01 0.01 0.02 0.02 0.02 0.02 0.02 0.01 0.01 0.02 0.02
0.01 0.03 0.02 0.01 0.00 0.01 0.00 0.01 0.01 0.01 0.02 0.05 0.08 0.13 0.12 0.12 0.12 0.08 0.04 0.04 0.05 0.05 0.05 0.05 0.04 0.04 0.03 0.04 0.03 0.02 0.01 0.01 0.01 0.01 0.02 0.02 0.02 0.02 0.02 0.02 0.02 0.02 0.02 0.02
0.00 0.01 0.02 0.01 0.01 0.00 0.00 0.01 0.03 0.02 0.02 0.02 0.05 0.09 0.10 0.09 0.09 0.08 0.05 0.04 0.05 0.05 0.04 0.04 0.04 0.03 0.03 0.03 0.02 0.01 0.01 0.01 0.01 0.01 0.01 0.01 0.01 0.01 0.02 0.02 0.02 0.02 0.02 0.02
0.00 0.01 0.03 0.04 0.03 0.02 0.00 0.00 0.02 0.01 0.02 0.04 0.08 0.10 0.07 0.06 0.07 0.06 0.06 0.05 0.04 0.05 0.05 0.04 0.04 0.02 0.02 0.01 0.01 0.00 0.01 0.01 0.01 0.01 0.01 0.01 0.02 0.02 0.02 0.02 0.02 0.02 0.02 0.02
0.01 0.01 0.05 0.08 0.07 0.04 0.02 0.01 0.01 0.01 0.03 0.06 0.09 0.10 0.08 0.07 0.07 0.09 0.09 0.06 0.04 0.05 0.06 0.07 0.04 0.02 0.01 0.01 0.01 0.01 0.01 0.01 0.01 0.01 0.01 0.02 0.02 0.02 0.02 0.02 0.02 0.02 0.02 0.02
0.01 0.02 0.02 0.03 0.02 0.01 0.01 0.01 0.01 0.01 0.02 0.06 0.07 0.09 0.07 0.05 0.05 0.07 0.08 0.06 0.05 0.04 0.04 0.05 0.04 0.02 0.02 0.01 0.01 0.01 0.01 0.02 0.02 0.02 0.01 0.02 0.02 0.02 0.02 0.02 0.03 0.03 0.02 0.02
0.01 0.02 0.02 0.03 0.01 0.01 0.02 0.01 0.01 0.01 0.02 0.04 0.07 0.08 0.04 0.03 0.03 0.04 0.05 0.06 0.05 0.03 0.02 0.03 0.02 0.02 0.02 0.01 0.01 0.01 0.01 0.01 0.02 0.02 0.01 0.01 0.01 0.01 0.02 0.03 0.03 0.04 0.04 0.03
0.01 0.02 0.05 0.04 0.02 0.02 0.05 0.03 0.03 0.02 0.02 0.03 0.07 0.07 0.03 0.03 0.03 0.05 0.05 0.06 0.04 0.02 0.02 0.03 0.03 0.02 0.01 0.01 0.01 0.01 0.01 0.01 0.01 0.02 0.01 0.01 0.01 0.02 0.02 0.02 0.04 0.04 0.04 0.04
0.01 0.05 0.05 0.05 0.05 0.08 0.06 0.02 0.02 0.03 0.03 0.02 0.04 0.03 0.04 0.05 0.05 0.04 0.05 0.06 0.06 0.04 0.02 0.02 0.02 0.02 0.02 0.01 0.01 0.01 0.01 0.02 0.02 0.02 0.02 0.01 0.01 0.02 0.02 0.03 0.05 0.05 0.04 0.04
0.00 0.03 0.06 0.08 0.10 0.09 0.07 0.03 0.03 0.04 0.05 0.02 0.02 0.03 0.03 0.04 0.05 0.06 0.06 0.06 0.06 0.05 0.03 0.02 0.02 0.02 0.02 0.03 0.02 0.02 0.03 0.02 0.02 0.01 0.01 0.01 0.01 0.02 0.03 0.03 0.04 0.06 0.05 0.04
0.00 0.01 0.05 0.09 0.10 0.11 0.09 0.03 0.01 0.04 0.09 0.03 0.03 0.04 0.04 0.05 0.09 0.09 0.08 0.06 0.04 0.03 0.04 0.03 0.02 0.02 0.02 0.03 0.02 0.03 0.03 0.03 0.02 0.02 0.01 0.01 0.02 0.02 0.03 0.03 0.04 0.04 0.03 0.04
0.02 0.03 0.04 0.06 0.08 0.09 0.04 0.01 0.02 0.08 0.11 0.05 0.03 0.03 0.04 0.06 0.08 0.06 0.05 0.05 0.05 0.04 0.03 0.03 0.03 0.03 0.03 0.02 0.02 0.03 0.04 0.03 0.02 0.02 0.01 0.02 0.03 0.03 0.02 0.03 0.04 0.04 0.03 0.02
0.04 0.04 0.05 0.06 0.11 0.11 0.03 0.03 0.05 0.07 0.03 0.02 0.02 0.01 0.02 0.03 0.03 0.03 0.04 0.04 0.04 0.03 0.03 0.02 0.03 0.03 0.03 0.03 0.04 0.05 0.04 0.02 0.02 0.02 0.03 0.03 0.02 0.02 0.02 0.04 0.05 0.05 0.03 0.02
0.03 0.05 0.05 0.06 0.09 0.05 0.02 0.03 0.02 0.02 0.02 0.03 0.02 0.02 0.01 0.02 0.01 0.02 0.03 0.02 0.02 0.02 0.02 0.02 0.03 0.03 0.04 0.04 0.04 0.05 0.04 0.02 0.02 0.03 0.03 0.03 0.02 0.02 0.03 0.05 0.05 0.05 0.04 0.03
0.02 0.02 0.03 0.03 0.03 0.01 0.01 0.01 0.01 0.01 0.01 0.02 0.01 0.01 0.02 0.02 0.01 0.02 0.01 0.02 0.02 0.02 0.03 0.03 0.03 0.04 0.05 0.04 0.04 0.05 0.03 0.02 0.02 0.03 0.04 0.04 0.03 0.03 0.03 0.04 0.04 0.04 0.03 0.03
0.01 0.01 0.02 0.03 0.02 0.01 0.01 0.00 0.00 0.00 0.00 0.00 0.00 0.01 0.01 0.01 0.01 0.01 0.01 0.02 0.02 0.03 0.04 0.04 0.04 0.04 0.05 0.04 0.04 0.04 0.03 0.03 0.04 0.04 0.04 0.04 0.03 0.03 0.04 0.04 0.03 0.03 0.02 0.01
0.00 0.01 0.03 0.03 0.01 0.01 0.01 0.00 0.00 0.00 0.00 0.00 0.00 0.01 0.01 0.01 0.01 0.01 0.01 0.02 0.02 0.03 0.03 0.03 0.04 0.04 0.03 0.03 0.03 0.04 0.03 0.04 0.04 0.04 0.03 0.03 0.03 0.03 0.04 0.03 0.02 0.02 0.01 0.00
MSLP
1009.49 1009.59 1009.50 1009.26 1008.94 1008.64 1008.41 1008.29 1008.28 1008.34 1008.41 1008.43 1008.34 1008.14 1007.85 1007.56 1007.34 1007.31 1007.51 1007.99 1008.71 1009.61 1010.58 1011.50 1012.27 1012.81 1013.12 1013.22 1013.19 1013.12 1013.10 1013.20 1013.45 1013.84 1014.32 1014.82 1015.26 1015.58 1015.77 1015.83 1015.81 1015.76 1015.76 1015.85
1009.78 1009.68 1009.39 1008.96 1008.51 1008.13 1007.90 1007.86 1007.98 1008.19 1008.40 1008.53 1008.50 1008.29 1007.94 1007.52 1007.16 1006.97 1007.04 1007.43 1008.10 1009.01 1010.03 1011.03 1011.90 1012.56 1012.98 1013.17 1013.21 1013.19 1013.20 1013.32 1013.58 1013.95 1014.41 1014.87 1015.27 1015.55 1015.70 1015.73 1015.69 1015.65 1015.65 1015.75
1010.03 1009.77 1009.30 1008.72 1008.17 1007.75 1007.55 1007.60 1007.86 1008.23 1008.59 1008.82 1008.85 1008.63 1008.19 1007.64 1007.10 1006.73 1006.63 1006.87 1007.46 1008.34 1009.38 1010.46 1011.44 1012.23 1012.77 1013.08 1013.22 1013.27 1013.33 1013.46 1013.71 1014.07 1014.49 1014.92 1015.29 1015.54 1015.68 1015.70 1015.66 1015.62 1015.62 1015.72
1010.28 1009.89 1009.31 1008.64 1008.04 1007.63 1007.50 1007.66 1008.06 1008.59 1009.09 1009.42 1009.48 1009.23 1008.70 1007.98 1007.25 1006.66 1006.35 1006.42 1006.88 1007.69 1008.74 1009.88 1010.96 1011.88 1012.56 1013.00 1013.25 1013.38 1013.48 1013.63 1013.86 1014.19 1014.58 1014.97 1015.32 1015.58 1015.72 1015.76 1015.74 1015.71 1015.72 1015.80
1010.53 1010.10 1009.46 1008.77 1008.18 1007.82 1007.78 1008.07 1008.61 1009.28 1009.89 1010.30 1010.38 1010.08 1009.44 1008.55 1007.61 1006.78 1006.25 1006.12 1006.43 1007.15 1008.17 1009.35 1010.52 1011.55 1012.37 1012.95 1013.31 1013.52 1013.66 1013.82 1014.03 1014.33 1014.68 1015.05 1015.40 1015.67 1015.84 1015.93 1015.95 1015.94 1015.95 1016.01
1010.81 1010.37 1009.75 1009.09 1008.56 1008.28 1008.34 1008.75 1009.42 1010.20 1010.90 1011.36 1011.44 1011.09 1010.33 1009.28 1008.14 1007.09 1006.33 1005.99 1006.14 1006.74 1007.72 1008.91 1010.14 1011.29 1012.23 1012.93 1013.40 1013.69 1013.87 1014.03 1014.23 1014.49 1014.81 1015.17 1015.52 1015.82 1016.04 1016.18 1016.26 1016.29 1016.31 1016.34
1011.06 1010.66 1010.10 1009.52 1009.07 1008.89 1009.05 1009.55 1010.30 1011.16 1011.92 1012.40 1012.48 1012.08 1011.23 1010.05 1008.74 1007.50 1006.54 1006.02 1006.00 1006.48 1007.39 1008.57 1009.85 1011.07 1012.13 1012.94 1013.51 1013.87 1014.10 1014.27 1014.45 1014.69 1014.99 1015.34 1015.70 1016.03 1016.30 1016.51 1016.63 1016.70 1016.74 1016.75
1011.25 1010.92 1010.44 1009.94 1009.57 1009.47 1009.70 1010.26 1011.06 1011.94 1012.72 1013.22 1013.29 1012.87 1011.98 1010.73 1009.31 1007.94 1006.84 1006.16 1006.00 1006.36 1007.19 1008.33 1009.63 1010.91 1012.05 1012.97 1013.63 1014.07 1014.35 1014.54 1014.72 1014.94 1015.22 1015.56 1015.92 1016.28 1016.60 1016.86 1017.03 1017.13 1017.18 1017.18
1011.32 1011.06 1010.66 1010.24 1009.94 1009.88 1010.13 1010.70 1011.49 1012.37 1013.15 1013.65 1013.74 1013.34 1012.46 1011.21 1009.78 1008.36 1007.18 1006.40 1006.13 1006.38 1007.12 1008.21 1009.49 1010.80 1012.00 1013.00 1013.75 1014.27 1014.61 1014.84 1015.03 1015.24 1015.50 1015.82 1016.19 1016.56 1016.90 1017.19 1017.39 1017.52 1017.57 1017.56
1011.25 1011.05 1010.71 1010.35 1010.08 1010.03 1010.26 1010.79 1011.53 1012.36 1013.12 1013.63 1013.76 1013.43 1012.65 1011.49 1010.13 1008.75 1007.57 1006.75 1006.40 1006.57 1007.21 1008.23 1009.46 1010.76 1011.99 1013.05 1013.88 1014.48 1014.88 1015.15 1015.36 1015.58 1015.83 1016.13 1016.47 1016.83 1017.17 1017.46 1017.68 1017.81 1017.86 1017.85
1011.05 1010.90 1010.61 1010.28 1010.02 1009.94 1010.10 1010.54 1011.20 1011.96 1012.68 1013.21 1013.42 1013.22 1012.60 1011.61 1010.41 1009.17 1008.06 1007.26 1006.88 1006.96 1007.50 1008.42 1009.57 1010.82 1012.05 1013.13 1014.02 1014.68 1015.15 1015.48 1015.72 1015.94 1016.17 1016.44 1016.75 1017.08 1017.39 1017.66 1017.87 1018.00 1018.05 1018.04
1010.81 1010.69 1010.44 1010.12 1009.84 1009.70 1009.78 1010.11 1010.65 1011.33 1012.02 1012.58 1012.88 1012.85 1012.45 1011.71 1010.74 1009.69 1008.72 1007.98 1007.59 1007.61 1008.04 1008.82 1009.86 1011.02 1012.19 1013.27 1014.18 1014.89 1015.42 1015.79 1016.07 1016.29 1016.51 1016.74 1017.00 1017.28 1017.55 1017.79 1017.97 1018.09 1018.14 1018.14
1010.59 1010.51 1010.29 1009.99 1009.69 1009.49 1009.47 1009.68 1010.10 1010.69 1011.34 1011.94 1012.36 1012.52 1012.37 1011.91 1011.21 1010.40 1009.61 1008.96 1008.58 1008.53 1008.83 1009.47 1010.35 1011.38 1012.45 1013.47 1014.37 1015.11 1015.67 1016.08 1016.38 1016.61 1016.81 1017.01 1017.22 1017.44 1017.66 1017.86 1018.02 1018.13 1018.19 1018.22
1010.48 1010.46 1010.28 1010.00 1009.70 1009.45 1009.34 1009.44 1009.75 1010.26 1010.87 1011.50 1012.03 1012.38 1012.48 1012.31 1011.91 1011.35 1010.74 1010.20 1009.83 1009.71 1009.88 1010.34 1011.03 1011.89 1012.82 1013.75 1014.59 1015.32 1015.89 1016.32 1016.63 1016.86 1017.05 1017.22 1017.38 1017.56 1017.74 1017.91 1018.05 1018.17 1018.25 1018.30
1010.52 1010.57 1010.46 1010.23 1009.94 1009.68 1009.51 1009.52 1009.74 1010.16 1010.73 1011.38 1012.02 1012.54 1012.86 1012.96 1012.82 1012.51 1012.08 1011.64 1011.29 1011.10 1011.12 1011.39 1011.87 1012.53 1013.29 1014.08 1014.84 1015.51 1016.06 1016.50 1016.81 1017.05 1017.22 1017.37 1017.50 1017.65 1017.81 1017.96 1018.11 1018.25 1018.36 1018.45
1010.71 1010.84 1010.82 1010.67 1010.44 1010.19 1010.00 1009.95 1010.09 1010.44 1010.97 1011.63 1012.32 1012.97 1013.48 1013.80 1013.89 1013.78 1013.52 1013.17 1012.83 1012.57 1012.46 1012.54 1012.81 1013.25 1013.82 1014.45 1015.09 1015.69 1016.20 1016.62 1016.93 1017.16 1017.33 1017.47 1017.60 1017.74 1017.90 1018.06 1018.23 1018.39 1018.54 1018.66
1010.97 1011.20 1011.29 1011.25 1011.10 1010.90 1010.72 1010.65 1010.74 1011.03 1011.51 1012.15 1012.87 1013.60 1014.24 1014.71 1014.99 1015.05 1014.92 1014.65 1014.32 1014.00 1013.77 1013.68 1013.76 1013.99 1014.37 1014.84 1015.35 1015.86 1016.31 1016.70 1017.00 1017.23 1017.41 1017.56 1017.70 1017.86 1018.03 1018.22 1018.42 1018.62 1018.80 1018.96
1011.22 1011.54 1011.75 1011.83 1011.79 1011.67 1011.54 1011.48 1011.55 1011.79 1012.22 1012.82 1013.53 1014.28 1014.99 1015.57 1015.96 1016.15 1016.12 1015.93 1015.62 1015.27 1014.95 1014.73 1014.64 1014.70 1014.91 1015.22 1015.61 1016.03 1016.42 1016.78 1017.07 1017.31 1017.50 1017.67 1017.84 1018.02 1018.22 1018.45 1018.69 1018.93 1019.14 1019.33
1011.35 1011.76 1012.08 1012.29 1012.37 1012.36 1012.30 1012.27 1012.34 1012.55 1012.92 1013.47 1014.14 1014.87 1015.60 1016.22 1016.70 1016.96 1017.02 1016.89 1016.62 1016.26 1015.90 1015.59 1015.40 1015.33 1015.41 1015.61 1015.89 1016.23 1016.58 1016.90 1017.19 1017.44 1017.66 1017.85 1018.05 1018.26 1018.50 1018.76 1019.04 1019.30 1019.54 1019.74
1011.31 1011.79 1012.22 1012.54 1012.75 1012.85 1012.89 1012.91 1012.99 1013.18 1013.50 1013.99 1014.60 1015.28 1015.98 1016.62 1017.12 1017.45 1017.58 1017.51 1017.29 1016.96 1016.60 1016.27 1016.02 1015.88 1015.87 1015.99 1016.21 1016.49 1016.80 1017.11 1017.40 1017.66 1017.90 1018.13 1018.36 1018.60 1018.87 1019.15 1019.44 1019.73 1019.97 1020.17
1011.11 1011.64 1012.14 1012.57 1012.89 1013.11 1013.24 1013.33 1013.43 1013.61 1013.90 1014.32 1014.86 1015.48 1016.13 1016.75 1017.26 1017.62 1017.80 1017.81 1017.65 1017.39 1017.07 1016.76 1016.50 1016.35 1016.31 1016.39 1016.57 1016.83 1017.12 1017.43 1017.73 1018.01 1018.27 1018.52 1018.77 1019.03 1019.31 1019.61 1019.90 1020.18 1020.43 1020.62
1010.81 1011.36 1011.92 1012.43 1012.85 1013.17 1013.39 1013.55 1013.69 1013.87 1014.13 1014.49 1014.96 1015.50 1016.09 1016.67 1017.17 1017.55 1017.78 1017.85 1017.78 1017.60 1017.35 1017.10 1016.89 1016.76 1016.74 1016.82 1016.99 1017.24 1017.54 1017.85 1018.16 1018.46 1018.74 1019.01 1019.27 1019.54 1019.82 1020.11 1020.40 1020.67 1020.90 1021.09
1010.50 1011.06 1011.65 1012.21 1012.71 1013.11 1013.42 1013.64 1013.82 1014.01 1014.25 1014.56 1014.95 1015.43 1015.95 1016.48 1016.96 1017.35 1017.62 1017.75 1017.77 1017.68 1017.52 1017.35 1017.22 1017.14 1017.15 1017.26 1017.45 1017.71 1018.02 1018.35 1018.68 1018.99 1019.29 1019.56 1019.83 1020.10 1020.37 1020.64 1020.90 1021.15 1021.38 1021.55
1010.26 1010.81 1011.41 1012.02 1012.57 1013.04 1013.41 1013.69 1013.91 1014.11 1014.33 1014.60 1014.94 1015.35 1015.80 1016.28 1016.73 1017.12 1017.42 1017.62 1017.70 1017.70 1017.65 1017.57 1017.51 1017.50 1017.56 1017.70 1017.93 1018.21 1018.54 1018.88 1019.22 1019.55 1019.86 1020.14 1020.41 1020.67 1020.92 1021.17 1021.41 1021.63 1021.84 1022.01
1010.13 1010.67 1011.28 1011.90 1012.49 1013.00 1013.42 1013.75 1014.01 1014.22 1014.44 1014.68 1014.97 1015.32 1015.72 1016.15 1016.57 1016.96 1017.28 1017.52 1017.67 1017.75 1017.77 1017.77 1017.79 1017.84 1017.95 1018.13 1018.38 1018.68 1019.03 1019.39 1019.74 1020.09 1020.40 1020.69 1020.95 1021.20 1021.43 1021.66 1021.87 1022.08 1022.27 1022.44
1010.10 1010.63 1011.24 1011.87 1012.48 1013.03 1013.49 1013.85 1014.14 1014.37 1014.58 1014.81 1015.07 1015.38 1015.74 1016.13 1016.52 1016.90 1017.23 1017.50 1017.70 1017.84 1017.92 1017.99 1018.06 1018.16 1018.31 1018.51 1018.78 1019.10 1019.45 1019.82 1020.19 1020.54 1020.86 1021.16 1021.42 1021.66 1021.88 1022.09 1022.29 1022.48 1022.66 1022.82
Thickness
5754 5746 5745 5756 5764 5765 5769 5766 5766 5774 5786 5774 5765 5758 5759 5765 5762 5755 5749 5749 5743 5737 5735 5733 5731 5729 5726 5724 5721 5719 5716 5714 5712 5710 5708 5706 5703 5702 5701 5699 5697 5696 5695 5695
5745 5742 5759 5771 5773 5768 5767 5762 5765 5773 5782 5774 5764 5759 5763 5760 5757 5757 5751 5746 5739 5731 5728 5725 5724 5721 5718 5716 5714 5712 5709 5707 5706 5704 5702 5701 5699 5697 5695 5693 5691 5691 5689 5689
5741 5754 5768 5764 5761 5756 5759 5758 5761 5763 5768 5769 5757 5748 5750 5756 5758 5757 5754 5749 5741 5732 5724 5719 5716 5714 5712 5708 5707 5705 5702 5701 5699 5699 5698 5696 5694 5692 5690 5687 5686 5685 5684 5684
5750 5760 5758 5753 5753 5754 5747 5766 5765 5761 5753 5745 5749 5728 5741 5749 5747 5747 5747 5743 5737 5731 5723 5717 5712 5708 5705 5702 5701 5698 5695 5693 5692 5692 5690 5688 5685 5682 5681 5681 5680 5680 5679 5678
5743 5755 5750 5745 5751 5755 5754 5770 5763 5757 5749 5740 5743 5730 5733 5742 5733 5736 5738 5737 5732 5728 5721 5713 5708 5704 5701 5699 5694 5691 5688 5686 5685 5683 5681 5679 5677 5676 5675 5675 5674 5674 5673 5673
5747 5761 5758 5754 5760 5760 5759 5757 5754 5750 5741 5720 5734 5729 5721 5728 5728 5729 5729 5729 5725 5722 5717 5709 5705 5700 5695 5692 5688 5684 5680 5678 5677 5675 5673 5670 5668 5668 5667 5666 5666 5666 5667 5667
5730 5746 5756 5759 5746 5751 5748 5733 5715 5706 5703 5707 5729 5726 5721 5733 5738 5732 5726 5722 5719 5716 5710 5703 5696 5691 5686 5682 5679 5676 5672 5669 5668 5667 5665 5663 5661 5661 5659 5658 5658 5658 5659 5660
5707 5718 5741 5749 5743 5736 5737 5731 5704 5686 5684 5696 5712 5714 5719 5735 5735 5733 5726 5718 5712 5708 5704 5697 5690 5685 5679 5675 5671 5667 5664 5662 5661 5659 5657 5657 5655 5654 5653 5651 5651 5651 5652 5653
5704 5711 5741 5750 5751 5743 5729 5727 5730 5707 5698 5691 5704 5709 5712 5721 5720 5721 5716 5708 5704 5701 5696 5689 5683 5678 5673 5668 5663 5660 5657 5654 5652 5651 5649 5649 5647 5646 5644 5644 5644 5644 5645 5646
5713 5703 5727 5742 5747 5745 5739 5731 5722 5706 5681 5676 5692 5688 5686 5695 5703 5709 5708 5702 5699 5693 5687 5682 5676 5671 5666 5662 5657 5653 5649 5647 5645 5644 5642 5641 5639 5638 5637 5636 5636 5636 5636 5637
5717 5698 5710 5724 5723 5723 5727 5725 5720 5714 5707 5686 5678 5681 5700 5699 5704 5703 5700 5698 5693 5687 5680 5673 5668 5664 5659 5655 5650 5646 5643 5640 5638 5636 5634 5632 5631 5630 5630 5629 5628 5628 5628 5628
5717 5703 5694 5711 5729 5737 5730 5724 5718 5700 5699 5703 5689 5682 5709 5703 5705 5701 5696 5693 5688 5680 5674 5667 5661 5655 5651 5647 5643 5639 5636 5633 5631 5629 5626 5624 5623 5622 5622 5621 5620 5620 5620 5620
5711 5697 5681 5689 5701 5715 5716 5720 5719 5713 5704 5692 5682 5680 5702 5700 5695 5691 5688 5684 5678 5671 5664 5658 5651 5647 5642 5638 5634 5630 5628 5625 5623 5621 5618 5616 5615 5614 5612 5612 5612 5611 5611 5612
5705 5691 5678 5668 5678 5693 5697 5708 5713 5708 5693 5685 5685 5683 5687 5687 5686 5682 5678 5672 5667 5661 5655 5648 5642 5638 5633 5629 5626 5622 5619 5616 5614 5612 5609 5607 5606 5605 5604 5603 5602 5602 5602 5603
5700 5686 5684 5685 5696 5698 5698 5702 5706 5702 5696 5685 5683 5681 5681 5682 5681 5677 5671 5664 5657 5651 5646 5641 5634 5628 5624 5620 5617 5613 5610 5607 5604 5602 5600 5599 5598 5597 5595 5594 5593 5593 5594 5594
5696 5683 5681 5678 5693 5695 5693 5697 5699 5698 5695 5689 5683 5677 5685 5685 5680 5672 5663 5657 5650 5643 5638 5632 5627 5621 5616 5612 5609 5605 5601 5598 5596 5594 5592 5590 5589 5588 5586 5585 5584 5585 5585 5585
5689 5678 5669 5669 5685 5684 5673 5687 5692 5691 5695 5688 5675 5674 5677 5673 5669 5662 5657 5651 5645 5638 5632 5625 5620 5614 5609 5605 5601 5596 5593 5590 5588 5585 5584 5582 5580 5578 5577 5576 5575 5575 5575 5576
5682 5674 5670 5669 5671 5655 5677 5697 5695 5689 5688 5687 5679 5675 5671 5665 5660 5657 5652 5645 5638 5632 5625 5619 5612 5606 5601 5597 5592 5589 5585 5582 5580 5577 5575 5573 5571 5570 5568 5567 5566 5566 5566 5566
5691 5676 5667 5662 5657 5663 5676 5687 5688 5681 5674 5680 5674 5669 5664 5661 5651 5644 5643 5638 5631 5626 5619 5612 5605 5599 5594 5589 5585 5581 5577 5575 5572 5569 5567 5565 5563 5561 5560 5559 5558 5558 5559 5559
5694 5686 5670 5662 5651 5647 5664 5684 5693 5683 5661 5672 5670 5662 5658 5653 5638 5630 5632 5629 5622 5616 5610 5604 5598 5593 5587 5582 5578 5574 5570 5567 5564 5562 5560 5558 5556 5554 5553 5552 5551 5551 5552 5552
5679 5677 5671 5664 5656 5659 5674 5686 5689 5661 5652 5665 5665 5659 5653 5644 5636 5630 5626 5619 5613 5608 5602 5597 5592 5585 5580 5576 5572 5567 5564 5561 5559 5556 5554 5552 5550 5548 5547 5546 5545 5546 5546 5546
5677 5672 5669 5667 5656 5652 5676 5679 5666 5658 5665 5663 5660 5655 5646 5637 5631 5624 5618 5611 5606 5600 5595 5590 5584 5579 5575 5570 5566 5561 5557 5555 5553 5551 5548 5546 5544 5544 5542 5541 5541 5541 5541 5541
5682 5677 5674 5669 5662 5669 5674 5670 5669 5668 5661 5658 5654 5648 5640 5632 5624 5618 5611 5605 5599 5594 5589 5584 5579 5574 5569 5566 5562 5557 5553 5551 5549 5546 5543 5541 5540 5539 5538 5538 5537 5537 5537 5538
5688 5690 5680 5672 5670 5673 5673 5671 5668 5665 5658 5654 5649 5643 5636 5627 5619 5612 5605 5599 5594 5588 5583 5579 5575 5570 5565 5562 5558 5554 5551 5548 5545 5542 5539 5537 5536 5535 5534 5534 5534 5535 5535 5535
5687 5686 5678 5670 5670 5670 5667 5666 5663 5659 5655 5649 5644 5638 5631 5623 5615 5608 5601 5595 5589 5584 5579 5575 5571 5566 5562 5559 5555 5552 5549 5546 5542 5539 5537 5535 5534 5532 5531 5530 5528 5530 5528 5530
5690 5684 5676 5669 5673 5668 5662 5664 5661 5654 5648 5643 5637 5631 5626 5620 5612 5605 5598 5592 5586 5581 5577 5572 5568 5564 5560 5556 5553 5550 5547 5544 5540 5537 5536 5535 5533 5532 5531 5530 5528 5526 5527 5528